Voltar ao catálogo

GEESAT 2-09

AtivoComunicaçõesLEO
NORAD 58913·PAYLOAD·🇨🇳 China

Lançado Feb 2, 2024 de Xichang Satellite Launch Center

Loading…

Próximas Passagens (próximas 24 horas)

TLE

AtualizadoSource: Space-Track

Época: Sep 14, 2026, 22:46 UTC

1 58913U 24023J   26257.94921232  .00001029  00000-0  15119-3 0  9993
2 58913  50.0040 298.4273 0021343 350.6777   9.3762 14.83441483142240

Acompanhe GEESAT 2-09 em tempo real com AllMySat

Download on the App Store